Wind_Speed
42 47 45 47 47 53 50 39 45 43 45 44 46 48 54 58 58 56 57 59 60 54 50 54 57 56 59 61 64 67 76 80
43 43 42 48 44 42 44 42 42 43 45 50 48 48 44 47 52 53 54 53 59 60 59 57 56 58 66 71 72 79 83 81
48 44 41 46 44 46 50 51 40 46 48 45 44 51 48 50 52 46 55 63 64 63 67 64 65 66 69 71 74 78 82 85
49 54 44 42 47 47 56 49 44 46 50 47 50 48 52 53 57 60 61 62 64 63 67 72 77 79 79 85 84 85 89 86
45 42 45 43 51 48 48 47 44 52 54 45 51 51 51 51 54 63 63 69 74 70 76 79 83 82 84 87 92 94 90 87
45 50 50 57 55 56 56 53 54 48 45 52 52 47 53 58 63 60 67 74 71 75 78 78 83 79 81 85 87 84 86 82
63 56 55 59 58 56 52 55 63 57 57 54 55 59 63 64 64 63 66 71 75 78 78 76 79 83 85 85 85 80 78 76
51 62 61 55 53 64 57 54 54 66 62 58 60 68 64 65 71 73 72 74 75 77 76 80 87 88 82 79 76 74 71 68
32 29 46 64 59 61 63 56 53 55 54 48 52 61 61 58 65 65 62 68 74 74 78 82 83 77 76 75 71 70 69 70
34 32 29 36 42 46 47 55 52 56 58 60 59 63 68 66 66 72 70 78 82 81 79 78 76 73 71 71 70 72 71 73
33 31 34 37 41 42 44 50 51 48 49 61 69 75 74 73 75 77 83 79 79 73 73 71 71 72 71 72 74 73 76 79
32 33 35 37 39 45 49 52 56 57 58 56 59 67 69 73 74 77 77 76 69 68 70 69 71 71 73 72 74 78 79 81
35 38 44 43 45 49 52 55 62 58 63 61 64 65 66 65 70 70 69 67 65 66 70 71 73 76 75 76 77 80 83 84
32 36 40 48 46 49 44 47 57 63 56 63 68 66 65 65 65 68 66 65 67 70 73 75 77 77 77 79 80 84 85 84
38 36 36 38 38 43 47 50 48 58 64 62 60 64 65 67 65 62 62 66 71 74 77 80 81 81 80 82 84 84 82 88
38 38 38 40 44 47 49 52 50 53 57 60 60 62 60 57 58 61 65 69 72 72 69 69 73 76 78 81 81 86 87 88
42 44 49 51 51 48 52 54 54 53 54 56 54 54 55 59 61 64 68 71 72 72 72 75 77 76 77 81 86 89 93 94
46 46 46 46 47 48 46 44 48 50 49 49 53 58 60 63 66 69 72 73 74 74 74 72 75 77 81 84 87 91 96 100
38 38 40 42 37 34 36 40 46 49 49 54 60 62 64 67 70 70 73 74 75 75 75 75 79 82 85 90 94 99 101 106
38 41 38 34 31 33 39 42 51 53 57 62 66 64 66 68 70 72 69 69 72 77 81 83 84 86 90 95 99 102 108 106
Wind_Direction
227 236 242 246 244 241 242 251 260 271 266 279 279 278 276 277 278 280 283 281 283 282 284 287 287 289 291 291 292 298 302 299
216 219 239 241 240 247 236 246 251 261 263 269 271 278 279 275 276 279 285 285 289 284 290 298 291 289 294 298 294 293 299 301
216 212 221 232 227 239 236 242 242 252 260 267 283 277 279 277 274 290 292 286 289 288 290 288 294 296 295 297 298 297 300 301
219 214 218 229 235 239 238 238 235 251 257 261 275 273 274 279 283 283 285 297 297 290 296 292 292 295 290 296 303 301 299 300
222 221 215 226 232 238 238 241 246 248 257 265 265 272 284 290 280 284 289 292 290 291 296 292 295 291 294 298 299 297 296 298
214 212 218 225 226 237 240 236 246 256 262 257 260 272 283 285 296 283 283 286 288 289 295 296 297 299 301 299 297 299 300 302
212 221 228 231 234 234 243 247 248 252 257 262 267 278 283 282 277 284 287 289 285 289 296 297 297 299 298 300 302 302 302 300
218 221 229 235 243 239 245 254 260 261 265 279 280 270 269 278 279 284 291 289 293 294 295 295 299 298 298 301 302 301 297 293
218 225 234 238 242 245 247 253 256 259 257 261 275 274 275 282 278 286 293 295 292 294 296 296 296 297 300 300 299 297 293 292
233 216 226 235 236 245 246 254 255 247 256 258 263 283 282 279 285 283 292 293 291 294 296 296 299 300 299 298 296 295 292 291
246 252 256 256 255 255 251 252 253 254 271 266 263 272 278 279 283 289 290 291 293 293 296 298 298 298 298 297 296 296 297 297
257 255 255 260 258 257 257 261 261 260 263 272 279 278 285 284 283 287 287 290 294 296 297 297 298 297 296 297 300 301 300 299
254 252 246 254 261 263 262 267 260 259 258 274 274 280 287 287 285 290 291 295 294 296 299 299 297 295 297 299 300 300 299 299
260 263 260 264 269 267 273 269 262 260 269 271 272 277 284 289 290 292 294 296 298 298 299 296 296 298 298 299 298 296 298 300
257 261 263 266 270 269 267 266 269 262 267 272 279 285 287 287 291 294 297 297 298 298 298 297 298 297 297 295 295 299 301 302
263 267 273 273 274 276 276 274 278 277 276 282 284 285 287 290 292 295 296 297 298 299 300 300 300 299 298 297 299 301 303 302
265 275 278 277 275 284 284 284 283 283 282 283 285 288 290 295 296 295 296 297 298 300 300 299 299 299 299 300 302 303 304 305
267 272 275 276 280 282 282 282 282 282 283 288 293 295 295 295 294 295 295 297 299 299 302 303 301 300 301 301 300 302 304 304
274 275 276 278 277 282 275 275 279 284 284 292 295 294 293 293 293 293 295 298 301 304 304 301 301 301 301 303 303 305 305 305
275 278 277 276 274 275 268 272 279 283 286 289 292 292 293 291 292 295 299 302 303 304 305 303 301 302 303 305 306 306 306 305
Height
10733 10736 10737 10740 10744 10746 10749 10752 10751 10751 10753 10752 10749 10748 10747 10745 10743 10742 10744 10742 10742 10742 10737 10737 10735 10731 10729 10723 10719 10716 10712 10708
10724 10728 10732 10734 10734 10737 10739 10743 10744 10745 10744 10741 10741 10739 10738 10737 10736 10735 10732 10731 10728 10728 10727 10724 10721 10719 10715 10713 10709 10705 10701 10697
10717 10722 10721 10724 10725 10724 10728 10732 10735 10737 10737 10735 10732 10729 10728 10727 10726 10725 10722 10721 10718 10715 10715 10710 10709 10707 10704 10700 10696 10690 10686 10683
10708 10712 10714 10717 10717 10719 10721 10723 10726 10727 10727 10726 10723 10720 10719 10719 10717 10717 10713 10712 10708 10705 10700 10699 10696 10694 10691 10686 10680 10675 10670 10665
10701 10704 10705 10707 10709 10712 10715 10716 10716 10718 10716 10717 10715 10711 10713 10710 10708 10706 10703 10701 10697 10695 10690 10687 10683 10679 10677 10672 10667 10661 10654 10649
10691 10694 10696 10694 10698 10704 10706 10706 10706 10708 10708 10706 10703 10701 10703 10702 10700 10699 10695 10690 10685 10683 10678 10673 10670 10665 10662 10659 10651 10642 10637 10632
10685 10687 10688 10689 10694 10696 10698 10701 10698 10700 10699 10700 10699 10697 10696 10693 10690 10686 10683 10679 10675 10670 10669 10664 10658 10652 10648 10643 10636 10628 10622 10617
10676 10681 10683 10685 10688 10690 10693 10692 10694 10695 10695 10693 10693 10688 10685 10684 10681 10677 10671 10668 10664 10660 10656 10652 10645 10640 10635 10629 10622 10616 10610 10604
10669 10673 10676 10681 10682 10683 10685 10686 10686 10686 10684 10682 10683 10678 10672 10671 10669 10666 10661 10656 10653 10650 10644 10639 10633 10625 10621 10616 10610 10604 10600 10592
10665 10665 10668 10673 10674 10675 10676 10676 10676 10676 10675 10673 10670 10670 10666 10662 10659 10655 10650 10645 10642 10637 10632 10625 10618 10612 10606 10602 10597 10592 10586 10579
10662 10662 10664 10666 10668 10668 10668 10667 10667 10667 10666 10666 10665 10658 10656 10651 10646 10642 10638 10633 10629 10623 10618 10611 10605 10599 10593 10587 10580 10575 10569 10562
10656 10657 10658 10660 10661 10659 10659 10660 10661 10660 10658 10656 10652 10647 10644 10641 10636 10631 10625 10620 10616 10611 10605 10598 10592 10585 10580 10573 10566 10557 10550 10542
10651 10652 10653 10654 10654 10653 10652 10653 10652 10651 10650 10646 10642 10638 10634 10628 10622 10618 10614 10608 10603 10596 10592 10585 10578 10572 10565 10558 10551 10540 10532 10524
10643 10644 10646 10647 10646 10645 10643 10643 10642 10641 10638 10635 10632 10627 10622 10616 10610 10606 10600 10594 10588 10583 10579 10571 10564 10556 10550 10543 10535 10525 10516 10507
10637 10638 10638 10637 10635 10635 10633 10632 10630 10629 10627 10624 10619 10614 10608 10604 10598 10593 10587 10582 10576 10571 10564 10555 10548 10541 10534 10525 10518 10509 10501 10489
10627 10626 10626 10626 10625 10625 10623 10619 10619 10617 10615 10611 10607 10601 10597 10592 10587 10581 10575 10570 10563 10555 10549 10541 10532 10524 10514 10504 10495 10487 10480 10475
10623 10621 10618 10618 10617 10614 10610 10607 10607 10606 10603 10599 10596 10591 10586 10581 10574 10568 10562 10555 10548 10541 10534 10526 10516 10506 10495 10486 10475 10464 10454 10445
10618 10615 10610 10609 10607 10604 10600 10596 10594 10595 10592 10589 10584 10579 10573 10567 10560 10555 10548 10541 10532 10525 10517 10509 10499 10489 10478 10468 10457 10446 10435 10421
10608 10604 10602 10598 10596 10596 10592 10589 10585 10584 10581 10578 10573 10566 10560 10554 10548 10542 10535 10526 10515 10506 10499 10492 10481 10470 10458 10445 10433 10420 10407 10394
10598 10596 10591 10590 10589 10587 10585 10582 10577 10574 10570 10567 10561 10554 10548 10541 10535 10527 10519 10511 10501 10492 10481 10472 10461 10450 10437 10423 10408 10394 10380 10365